User: anonymous   Login
Location: Vancouver
(49.2500°N, 123.1330°W)
Time: 12:40:55
(UTC-08:00)
Language:

AO-27 - Orbit

View from above orbital plane
View from above orbital plane
View from above satellite
View from above satellite

Ground track
Ground track

The orbit data is extracted from the following two-line orbital elements,

1 22825U 93061C   17051.13264783  .00000010  00000-0  21676-4 0  9993
2 22825  98.7968  15.3736 0007695 319.4510  40.6098 14.29986187220672
Epoch (UTC): 20 February 2017 03:11:00
Eccentricity: 0.0007695
inclination: 98.7968°
perigee height: 786 km
apogee height: 797 km
right ascension of ascending node: 15.3736°
argument of perigee: 319.4510°
revolutions per day: 14.29986187
mean anomaly at epoch: 40.6098°
orbit number at epoch: 22067

The dashed part of the orbit path shows where the satellite is in the earth's shadow,  

DLR